Home   Weather   Wellington   Past weeks

Flag for New Zealand Past Weather in Wellington, New Zealand — Yesterday and Last 2 Weeks

Now
59 °F

Partly cloudy.


Feels Like: 56 °F
Forecast: 59 / 64 °F
Wind: 18 mph from North

Location: Wellington Airport

Current Time: Apr 27, 2017 at 3:56:45 am

Latest Report: Apr 27, 2017 at 3:30 am


Visibility: N/A

Pressure: 30.04 "Hg

Humidity: 82%

Dew Point: 54 °F

Location of WellingtonLocation

Past Weather in Wellington — Graph

°F

Wellington Temperature Yesterday

Maximum temperature yesterday: 63 °F (at 11:00 am)
Minimum temperature yesterday: 54 °F (at 12:30 am)
Average temperature yesterday: 59 °F

High & Low Weather Summary for the Past Weeks

 TemperatureHumidityPressure
High66 °F (Apr 12, 11:30 am)100% (Apr 12, 4:00 pm)30.42 "Hg (Apr 12, 4:00 pm)
Low45 °F (Apr 19, 2:00 am)59% (Apr 20, 12:00 pm)29.24 "Hg (Apr 14, 2:00 am)
Average58 °F84%30.02 "Hg
* Reported Apr 12 2:00 am — Apr 27 2:30 am, Wellington, Weather by CustomWeather, © 2017

Note: Actual official high and low records may vary slightly from our data, if they occured in-between our weather recording intervals... More about our weather records

Advertising

Wellington Weather History for the Previous 24 Hours

Scroll right to see more
 ConditionsComfort  
Time TempWeatherWind HumidityBarometerVisibility
2:30 am
Thu, Apr 27
59 °FPassing clouds.20 mph82%30.07 "HgN/A
2:00 am59 °FPassing clouds.17 mph82%30.07 "HgN/A
1:30 am59 °FPassing clouds.20 mph82%30.07 "HgN/A
1:00 am61 °FPassing clouds.21 mph77%30.07 "HgN/A
12:00 am61 °FPassing clouds.21 mph77%30.07 "HgN/A
11:30 pm
Wed, Apr 26
61 °FPassing clouds.23 mph77%30.07 "HgN/A
11:00 pm61 °FPartly cloudy.22 mph83%30.07 "HgN/A
10:30 pm61 °FPassing clouds.22 mph83%30.07 "HgN/A
10:00 pm61 °FPartly cloudy.22 mph83%30.07 "HgN/A
9:30 pm61 °FPassing clouds.23 mph83%30.04 "HgN/A
9:00 pm61 °FPassing clouds.24 mph83%30.04 "HgN/A
8:30 pm61 °FPassing clouds.22 mph83%30.04 "HgN/A
8:00 pm61 °FPassing clouds.23 mph83%30.04 "HgN/A
7:30 pm61 °FPassing clouds.25 mph83%30.04 "HgN/A
7:00 pm61 °FPassing clouds.24 mph83%30.04 "HgN/A
6:30 pm61 °FPartly cloudy.22 mph83%30.04 "HgN/A
6:00 pm61 °FPassing clouds.23 mph83%30.04 "HgN/A
5:30 pm61 °FPartly sunny.23 mph83%30.04 "HgN/A
5:00 pm61 °FPartly sunny.22 mph83%30.04 "HgN/A
4:30 pm61 °FPartly sunny.22 mph83%30.04 "HgN/A
4:00 pm63 °FBroken clouds.23 mph77%30.04 "HgN/A
3:30 pm63 °FPartly sunny.20 mph77%30.04 "HgN/A
3:00 pm63 °FPartly sunny.21 mph77%30.04 "HgN/A
2:30 pm63 °FPartly sunny.23 mph77%30.04 "HgN/A
2:00 pm63 °FBroken clouds.21 mph77%30.04 "HgN/A
1:30 pm63 °FBroken clouds.22 mph77%30.04 "HgN/A
1:00 pm63 °FPartly sunny.21 mph77%30.07 "HgN/A
12:30 pm63 °FPartly sunny.18 mph77%30.07 "HgN/A
12:00 pm63 °FPartly sunny.20 mph77%30.09 "HgN/A
11:30 am63 °FMostly cloudy.20 mph77%30.09 "HgN/A
11:00 am63 °FPartly sunny.17 mph73%30.09 "HgN/A
10:30 am61 °FPartly sunny.15 mph77%30.09 "HgN/A
10:00 am61 °FBroken clouds.15 mph77%30.09 "HgN/A
9:30 am59 °FBroken clouds.12 mph82%30.09 "HgN/A
9:00 am57 °FPartly sunny.14 mph82%30.09 "HgN/A
8:30 am57 °FOvercast.13 mph82%30.09 "HgN/A
8:00 am55 °FPartly sunny.13 mph88%30.09 "HgN/A
7:30 am55 °FPartly sunny.13 mph82%30.09 "HgN/A
7:00 am54 °FPassing clouds.14 mph94%30.09 "HgN/A
6:30 am54 °FPassing clouds.13 mph94%30.09 "HgN/A
6:00 am54 °FCool.12 mph88%30.09 "HgN/A
5:30 am54 °FCool.9 mph88%30.09 "HgN/A
5:00 am54 °FCool.10 mph88%30.07 "HgN/A
4:30 am54 °FCool.10 mph88%30.07 "HgN/A
4:00 am54 °FCool.10 mph88%30.07 "HgN/A
3:30 am54 °FCool.10 mph88%30.07 "HgN/A
Weather by CustomWeather, © 2017

See weather overviewHow to use our weather pages